Wind_Speed
25 26 25 24 25 26 26 25 24 21 19 18 16 15 14 14 14 13 13 13 12 11 11 10 10 11 12 12 13 13 13 14 15 16 16 17 17 18 19 20 20 20 21 22
26 27 27 26 25 26 27 26 25 24 21 20 19 17 16 15 14 14 14 14 14 13 13 13 12 12 13 15 15 15 15 16 16 17 17 17 18 18 19 21 22 23 24 25
28 27 27 26 25 26 27 26 26 25 23 22 21 19 18 17 16 15 15 16 16 16 16 16 16 16 16 16 17 18 18 18 18 18 19 19 20 21 21 23 24 25 26 27
30 29 29 26 25 26 27 26 26 25 24 23 22 21 20 19 18 17 17 17 18 19 19 18 18 17 18 18 19 20 20 20 21 21 21 22 22 23 23 24 25 27 28 29
29 29 29 28 26 26 26 25 25 24 22 22 22 22 22 21 20 19 19 18 19 20 20 19 19 20 20 20 20 21 22 22 23 24 24 24 25 26 27 27 28 28 29 30
28 29 29 27 26 26 26 25 24 24 24 23 22 22 21 21 21 20 21 21 20 21 21 21 21 22 22 22 23 23 24 25 26 26 26 26 27 28 29 30 30 30 31 32
26 27 27 25 24 24 24 23 23 23 23 22 21 21 21 21 21 21 21 22 22 22 22 22 22 22 23 24 24 25 27 27 27 27 27 28 29 29 30 31 32 32 32 33
23 23 22 22 22 22 22 22 22 22 22 21 21 21 21 21 22 22 21 22 23 23 24 24 24 24 24 24 25 27 28 28 28 28 28 29 30 30 31 32 32 32 33 34
21 20 20 20 21 21 20 20 21 21 20 20 20 21 21 22 22 23 24 24 24 24 25 26 25 25 25 26 26 27 28 28 29 30 30 31 32 33 33 34 34 34 35 36
18 18 18 18 18 17 17 18 19 20 19 20 20 21 21 21 22 23 24 25 26 27 27 27 26 25 25 26 27 27 27 28 30 31 32 33 34 34 35 35 36 37 37 38
15 15 16 16 15 15 16 17 18 18 19 19 18 19 20 21 21 22 23 24 25 26 27 27 25 24 24 25 26 26 27 29 30 31 32 33 34 34 36 35 36 37 38 40
14 13 13 14 14 14 15 16 16 17 17 17 17 17 19 20 20 20 21 22 23 23 24 25 25 24 24 25 26 27 28 30 31 32 33 33 34 34 35 37 37 37 38 39
13 12 12 12 13 13 13 13 14 14 14 14 16 17 17 17 17 18 19 19 21 21 22 24 25 25 25 26 27 28 28 29 30 31 32 33 34 35 35 37 38 39 39 41
13 12 12 12 11 12 12 12 12 13 13 13 13 13 14 14 15 15 16 16 18 20 21 22 23 24 25 26 27 27 28 29 30 31 32 33 35 36 37 38 39 41 42 43
12 13 12 11 11 10 11 10 10 10 11 11 12 12 12 12 13 14 15 15 16 17 19 21 22 23 24 25 26 28 29 30 31 32 34 35 36 37 38 40 42 43 44 45
11 11 10 10 9 10 10 9 9 9 10 11 11 11 11 11 12 12 14 15 16 18 20 21 22 24 25 26 28 29 30 32 33 35 36 37 38 40 41 43 44 45 46 47
12 11 10 10 9 9 9 9 9 10 10 10 10 11 11 12 12 13 14 15 16 18 19 21 22 24 26 27 28 30 32 33 35 36 37 39 40 41 43 44 45 46 47 48
11 11 10 10 10 9 9 9 10 10 10 11 11 11 12 13 13 14 16 17 19 20 21 23 25 26 28 29 30 32 34 35 36 38 39 40 41 43 44 45 46 47 48 48
12 11 10 10 10 9 8 8 9 9 10 10 11 12 13 14 15 17 18 20 21 23 24 26 28 29 31 32 34 35 36 37 38 40 41 42 43 44 45 46 47 47 47 47
11 11 11 10 10 9 8 8 9 9 10 11 12 13 15 16 18 19 20 22 24 25 27 28 30 32 34 34 35 37 38 39 41 42 43 44 45 46 47 47 48 47 47 46
11 11 11 10 10 10 10 9 9 10 11 12 13 15 16 18 19 21 23 25 26 28 29 31 33 34 35 36 37 39 40 41 42 43 44 45 46 47 47 46 45 44 43 42
11 11 10 10 11 11 10 11 11 13 13 14 16 17 19 21 23 25 26 27 29 30 32 33 35 36 37 38 39 40 41 42 42 43 44 44 44 43 43 42 41 40 39 38
12 11 12 12 12 12 12 13 14 15 17 18 19 21 22 24 25 27 28 29 31 32 33 34 35 37 38 38 39 39 39 40 40 40 41 41 40 39 38 37 37 36 35 35
13 12 13 13 13 14 15 16 17 19 20 21 22 23 25 26 27 28 30 31 32 33 34 34 36 36 37 37 37 37 37 37 38 38 38 37 37 36 35 34 33 33 33 33
13 13 13 14 15 16 18 19 20 21 22 23 24 26 27 28 29 29 30 31 32 33 34 34 35 35 35 35 35 35 36 36 35 35 35 34 34 33 32 31 30 30 30 29
15 15 15 16 17 18 19 20 21 22 24 25 26 26 27 28 29 30 30 31 32 33 33 33 34 34 34 34 33 33 32 32 31 32 32 31 30 29 28 27 26 26 26 25
16 16 17 18 19 20 20 21 22 24 25 26 26 27 28 28 29 30 30 31 32 32 33 33 33 33 32 32 31 31 31 31 30 30 29 28 27 26 24 24 24 24 23 24
Wind_Direction
253 252 251 252 255 257 259 261 261 263 264 266 266 269 274 275 275 275 267 259 256 255 250 242 235 231 228 225 222 218 215 215 216 219 224 226 229 234 237 238 239 242 246 250
257 258 256 256 257 258 258 259 262 263 264 264 264 266 270 269 269 271 262 255 252 250 249 248 243 237 233 230 227 224 224 225 225 226 228 229 232 237 240 242 244 247 252 255
258 258 259 259 261 259 257 259 261 263 264 261 261 263 264 262 262 263 260 254 250 247 248 247 246 244 240 234 231 230 230 231 233 233 234 234 238 242 245 247 249 253 256 259
257 259 261 263 262 261 259 259 260 261 260 258 259 259 259 258 259 259 257 252 249 246 247 248 247 245 242 239 237 236 236 237 239 238 240 241 244 248 250 253 255 257 260 262
258 260 262 262 262 261 260 259 259 257 256 254 255 256 256 256 257 256 252 251 250 245 243 248 249 245 242 241 241 242 242 242 242 244 244 245 248 250 253 255 258 260 263 265
260 262 262 260 259 260 260 258 255 254 254 256 255 254 253 253 253 253 250 251 252 247 244 247 249 247 245 245 244 244 246 245 246 248 249 250 251 254 256 257 259 262 264 265
257 260 261 259 258 256 255 255 254 253 253 252 253 253 252 250 250 249 250 250 249 247 246 246 247 248 248 249 249 249 248 248 248 251 253 253 255 257 260 262 264 266 266 267
255 256 257 254 253 252 252 251 251 249 250 251 254 254 253 252 250 248 249 249 248 248 248 248 248 248 249 249 251 253 253 252 253 255 257 259 260 262 265 266 268 269 269 270
255 254 251 249 250 249 248 249 249 249 249 251 252 253 253 252 250 246 244 246 247 250 249 248 248 249 250 250 252 255 256 257 258 259 261 262 263 265 267 268 269 269 269 271
250 249 249 247 246 245 246 247 246 247 248 250 251 249 249 249 246 244 243 245 247 248 248 248 248 249 249 250 254 257 260 262 263 263 264 266 268 267 268 268 268 269 271 272
249 246 242 239 242 245 246 246 245 245 247 246 245 242 241 244 245 245 246 247 248 247 245 246 250 253 254 254 258 262 264 265 268 270 272 272 271 270 270 268 271 272 273 272
242 240 238 237 241 243 241 241 243 244 241 238 237 236 237 239 241 242 244 247 248 249 249 248 251 255 257 260 263 265 267 269 271 273 275 276 275 276 274 273 275 275 276 276
236 239 237 235 234 234 235 237 237 239 237 238 235 234 232 234 239 243 245 247 248 249 250 252 254 255 260 263 266 268 272 274 276 277 278 279 279 278 278 279 279 279 280 281
231 229 229 234 234 231 228 233 237 237 234 234 233 235 236 237 240 242 246 249 250 252 256 256 258 262 267 270 273 274 276 278 279 280 280 282 282 280 282 283 283 282 281 283
232 228 229 234 235 233 230 229 230 230 230 231 233 236 239 246 247 247 250 254 255 255 257 261 265 269 271 274 277 278 279 280 282 283 284 285 284 283 284 285 285 284 284 285
223 220 219 220 221 223 228 231 235 238 234 233 238 241 244 248 250 252 257 260 262 263 265 268 271 274 274 277 280 281 281 281 282 284 285 286 286 286 286 286 286 286 286 286
220 218 215 217 220 223 230 232 237 239 236 235 240 245 248 252 256 260 263 267 271 274 276 277 278 280 279 280 282 283 284 285 286 286 287 288 288 288 287 287 287 288 288 289
215 218 222 222 225 230 234 239 243 244 242 242 242 247 252 258 263 267 271 274 277 279 280 282 283 285 286 286 286 287 287 288 288 288 289 289 289 289 289 289 289 289 290 290
217 218 222 223 225 227 232 235 240 242 244 249 254 259 264 269 274 277 281 282 282 283 285 287 287 287 288 288 288 289 289 290 290 290 291 290 290 290 291 291 291 291 292 292
219 222 223 221 222 225 230 237 244 250 256 263 268 271 274 278 280 283 284 286 287 287 287 288 290 289 289 289 289 290 291 291 292 292 292 292 292 292 292 292 292 292 293 293
221 221 220 221 225 232 240 248 256 263 269 273 275 277 280 282 283 285 287 288 289 289 289 289 290 291 291 291 292 292 292 293 293 293 293 293 293 293 293 293 293 293 294 293
211 216 219 225 234 242 250 257 264 268 272 276 280 282 285 286 287 289 289 290 291 291 291 292 292 293 294 294 295 295 295 295 295 295 295 296 295 295 295 295 294 294 294 294
217 224 230 236 244 250 259 265 269 272 276 279 282 285 287 289 290 291 291 292 292 293 293 294 294 295 296 296 297 297 297 297 297 298 298 298 298 297 296 295 295 296 296 296
231 235 240 244 252 260 266 270 272 275 278 282 285 288 289 290 291 291 292 293 293 294 295 295 296 297 298 298 298 298 299 299 300 300 300 300 299 298 297 297 297 298 298 298
237 242 247 253 261 267 269 271 275 279 282 285 287 288 289 290 291 292 293 294 295 296 297 298 299 300 300 300 300 300 301 302 302 302 303 302 301 300 298 298 298 299 299 300
240 248 256 262 266 271 273 276 280 282 284 285 287 289 291 292 293 294 295 296 297 299 300 300 301 302 302 302 303 303 304 304 305 305 306 306 305 303 301 301 301 302 303 303
250 256 261 266 269 272 275 278 280 283 285 287 289 290 292 293 295 297 298 299 300 301 302 302 303 303 304 304 304 304 305 305 306 306 307 307 307 306 305 305 306 307 307 306
Height
5785 5787 5788 5790 5792 5793 5795 5796 5798 5801 5803 5805 5805 5806 5806 5807 5807 5807 5807 5808 5809 5810 5810 5811 5812 5813 5814 5816 5817 5819 5820 5822 5824 5826 5828 5830 5832 5834 5836 5837 5839 5841 5842 5843
5778 5780 5781 5783 5785 5787 5789 5790 5792 5795 5797 5799 5800 5801 5802 5803 5803 5804 5804 5805 5805 5806 5807 5808 5809 5810 5812 5813 5815 5816 5818 5820 5822 5823 5825 5827 5829 5830 5832 5833 5834 5836 5837 5838
5771 5773 5774 5776 5779 5780 5782 5784 5786 5788 5792 5793 5794 5795 5797 5798 5799 5800 5800 5801 5802 5803 5804 5804 5805 5807 5808 5809 5811 5813 5815 5816 5818 5820 5822 5823 5825 5826 5827 5828 5830 5831 5831 5832
5764 5767 5767 5772 5772 5773 5775 5777 5780 5782 5784 5786 5788 5789 5791 5792 5794 5795 5796 5796 5797 5798 5800 5800 5801 5802 5804 5805 5807 5809 5811 5812 5814 5815 5817 5818 5820 5821 5822 5823 5824 5824 5825 5825
5757 5758 5760 5764 5765 5766 5768 5770 5773 5775 5777 5778 5780 5782 5784 5786 5788 5789 5790 5791 5792 5794 5795 5796 5797 5798 5799 5801 5803 5805 5806 5808 5809 5811 5812 5813 5814 5814 5815 5816 5817 5817 5817 5817
5750 5751 5753 5757 5758 5759 5762 5763 5766 5768 5770 5771 5773 5776 5778 5780 5781 5783 5784 5786 5787 5789 5790 5791 5791 5792 5794 5796 5798 5799 5801 5802 5803 5804 5805 5806 5807 5807 5808 5809 5809 5809 5809 5808
5743 5744 5746 5749 5751 5753 5756 5758 5759 5760 5762 5764 5767 5769 5771 5772 5774 5776 5778 5780 5781 5783 5784 5785 5786 5787 5789 5790 5792 5793 5794 5795 5796 5797 5798 5798 5799 5800 5800 5800 5801 5800 5800 5799
5736 5738 5742 5742 5744 5746 5748 5750 5751 5753 5755 5758 5760 5762 5764 5766 5768 5770 5771 5773 5774 5776 5778 5779 5780 5781 5782 5784 5785 5786 5787 5788 5789 5790 5790 5790 5791 5791 5791 5791 5791 5791 5791 5790
5731 5734 5735 5736 5737 5739 5741 5743 5745 5747 5749 5751 5753 5755 5757 5759 5761 5763 5764 5766 5768 5769 5771 5772 5774 5775 5776 5777 5778 5779 5780 5781 5781 5782 5781 5781 5782 5782 5781 5781 5781 5781 5780 5780
5725 5727 5729 5730 5731 5733 5735 5737 5739 5741 5743 5745 5747 5749 5750 5752 5754 5756 5757 5759 5761 5762 5764 5766 5767 5767 5769 5770 5771 5772 5773 5774 5773 5773 5773 5773 5772 5772 5771 5771 5771 5770 5769 5769
5721 5722 5723 5725 5727 5728 5730 5731 5733 5735 5737 5738 5740 5742 5744 5746 5747 5749 5750 5752 5753 5755 5756 5759 5760 5761 5763 5763 5764 5765 5765 5766 5765 5765 5765 5764 5763 5762 5762 5761 5760 5759 5758 5757
5716 5718 5719 5721 5722 5724 5725 5727 5728 5730 5732 5733 5734 5736 5737 5739 5741 5742 5744 5745 5747 5748 5749 5752 5754 5755 5756 5757 5757 5758 5758 5758 5757 5757 5756 5754 5754 5753 5751 5750 5749 5748 5747 5745
5712 5714 5715 5717 5718 5720 5721 5722 5724 5725 5726 5728 5729 5731 5732 5734 5736 5737 5738 5740 5741 5742 5743 5745 5747 5748 5749 5750 5750 5750 5749 5749 5748 5747 5746 5745 5743 5742 5741 5740 5738 5736 5735 5733
5709 5711 5712 5713 5714 5716 5717 5719 5720 5722 5723 5724 5725 5726 5728 5729 5731 5732 5733 5735 5736 5737 5738 5739 5740 5741 5742 5742 5742 5742 5741 5740 5739 5738 5737 5735 5733 5732 5730 5729 5727 5724 5722 5720
5706 5707 5709 5710 5711 5713 5715 5716 5717 5719 5720 5721 5722 5723 5724 5725 5727 5728 5729 5730 5731 5732 5733 5734 5734 5735 5735 5735 5734 5733 5732 5731 5730 5729 5727 5725 5723 5721 5720 5717 5715 5713 5710 5707
5703 5705 5706 5708 5710 5711 5712 5713 5715 5716 5717 5718 5719 5720 5721 5722 5723 5724 5725 5726 5727 5727 5728 5728 5728 5728 5727 5727 5726 5725 5723 5722 5720 5719 5717 5715 5712 5710 5708 5705 5702 5699 5696 5693
5700 5702 5704 5706 5707 5709 5710 5711 5712 5713 5714 5715 5716 5717 5718 5719 5720 5721 5722 5722 5722 5722 5722 5722 5721 5720 5719 5718 5717 5716 5714 5712 5710 5708 5706 5703 5700 5698 5695 5692 5689 5685 5682 5679
5697 5699 5701 5703 5705 5706 5708 5709 5710 5710 5711 5712 5713 5714 5715 5716 5717 5717 5717 5717 5717 5717 5716 5716 5715 5713 5712 5710 5708 5707 5705 5702 5700 5697 5694 5692 5689 5686 5682 5679 5675 5672 5668 5664
5695 5697 5698 5700 5702 5703 5705 5706 5707 5708 5708 5709 5710 5711 5712 5712 5712 5712 5712 5711 5711 5710 5709 5708 5707 5705 5703 5701 5699 5697 5694 5692 5689 5686 5683 5679 5676 5673 5669 5665 5661 5658 5654 5650
5692 5694 5696 5697 5699 5700 5702 5703 5704 5705 5705 5706 5706 5707 5707 5707 5707 5706 5706 5705 5704 5703 5702 5700 5698 5696 5694 5691 5689 5686 5683 5680 5677 5674 5670 5666 5663 5659 5655 5651 5647 5643 5640 5636
5689 5691 5693 5695 5697 5698 5699 5700 5701 5701 5702 5702 5702 5702 5702 5702 5701 5701 5700 5699 5697 5696 5694 5692 5690 5687 5684 5681 5678 5675 5672 5668 5665 5661 5657 5653 5649 5645 5641 5637 5633 5629 5626 5622
5686 5688 5690 5692 5693 5695 5696 5696 5697 5697 5698 5698 5698 5697 5697 5696 5695 5694 5692 5691 5689 5687 5685 5682 5680 5677 5674 5670 5667 5664 5660 5656 5652 5648 5644 5639 5635 5631 5627 5623 5620 5616 5613 5610
5684 5686 5687 5689 5690 5691 5692 5692 5693 5693 5693 5693 5692 5691 5690 5689 5688 5686 5684 5682 5680 5678 5675 5672 5669 5666 5663 5660 5656 5652 5648 5644 5640 5636 5631 5627 5623 5619 5615 5612 5608 5605 5602 5599
5681 5682 5684 5685 5686 5687 5687 5688 5688 5688 5687 5686 5686 5684 5683 5682 5680 5678 5676 5674 5671 5668 5665 5662 5659 5656 5652 5649 5645 5641 5637 5633 5629 5624 5620 5615 5611 5607 5604 5601 5598 5595 5592 5589
5677 5679 5680 5680 5681 5682 5682 5682 5682 5681 5680 5679 5678 5677 5675 5674 5672 5670 5667 5665 5662 5659 5656 5652 5649 5645 5642 5638 5634 5630 5627 5622 5618 5614 5609 5605 5601 5597 5594 5591 5588 5585 5583 5580
5674 5675 5675 5676 5676 5676 5676 5676 5675 5674 5673 5672 5671 5669 5667 5665 5663 5661 5658 5655 5652 5649 5646 5642 5639 5635 5632 5628 5624 5620 5616 5612 5608 5604 5600 5596 5592 5588 5585 5582 5580 5577 5574 5572
5669 5670 5670 5670 5670 5670 5670 5669 5668 5667 5666 5664 5663 5661 5659 5657 5654 5652 5649 5646 5643 5640 5636 5633 5629 5626 5622 5618 5615 5611 5607 5604 5600 5596 5592 5588 5584 5581 5578 5575 5573 5570 5568 5565